TimeEDT,TemperatureF,Dew PointF,Humidity,Sea Level PressureIn,VisibilityMPH,Wind Direction,Wind SpeedMPH,Gust SpeedMPH,PrecipitationIn,Events,Conditions,WindDirDegrees,DateUTC
12:58 AM,54.5,49.3,83,29.94,10.0,Calm,Calm,-,N/A,,Scattered Clouds,0,2013-05-07 04:58:00
1:58 AM,53.6,49.6,86,29.92,10.0,NNE,3.5,-,N/A,,Overcast,20,2013-05-07 05:58:00
2:58 AM,49.8,48.6,95,29.92,10.0,SSE,2.3,-,N/A,,Partly Cloudy,150,2013-05-07 06:58:00
3:58 AM,48.9,48.7,99,29.90,10.0,East,3.5,-,N/A,,Scattered Clouds,100,2013-05-07 07:58:00
4:58 AM,48.0,47.7,99,29.91,9.0,ENE,1.2,-,N/A,,Partly Cloudy,70,2013-05-07 08:58:00
5:58 AM,49.6,49.5,99,29.91,10.0,Calm,Calm,-,N/A,,Overcast,360,2013-05-07 09:58:00
6:58 AM,49.5,49.3,99,29.93,10.0,Calm,Calm,-,N/A,,Mostly Cloudy,0,2013-05-07 10:58:00
7:58 AM,51.8,51.6,99,29.95,10.0,East,1.2,-,N/A,,Overcast,100,2013-05-07 11:58:00
8:58 AM,52.9,51.4,95,29.96,10.0,SE,3.5,-,N/A,,Overcast,140,2013-05-07 12:58:00
9:25 AM,53.6,51.8,94,29.96,10.0,SSE,4.6,-,N/A,Rain,Light Rain,150,2013-05-07 13:25:00
9:58 AM,54.7,52.7,93,29.98,10.0,SSE,4.6,-,0.00,,Overcast,160,2013-05-07 13:58:00
10:20 AM,55.4,53.6,94,29.98,7.0,SSE,3.5,-,N/A,Rain,Light Rain,150,2013-05-07 14:20:00
10:58 AM,54.3,53.8,98,29.98,7.0,ESE,2.3,-,0.10,Rain,Light Rain,120,2013-05-07 14:58:00
11:58 AM,59.4,55.9,88,29.96,10.0,Variable,1.2,-,0.02,,Mostly Cloudy,0,2013-05-07 15:58:00
12:58 PM,63.5,53.6,70,29.95,10.0,Variable,4.6,-,N/A,,Mostly Cloudy,0,2013-05-07 16:58:00
1:58 PM,66.0,53.2,63,29.93,10.0,South,5.8,-,N/A,,Scattered Clouds,170,2013-05-07 17:58:00
2:58 PM,68.0,53.1,59,29.93,10.0,Variable,6.9,-,N/A,,Mostly Cloudy,0,2013-05-07 18:58:00
3:58 PM,67.3,52.3,59,29.91,10.0,SSW,9.2,-,N/A,,Mostly Cloudy,210,2013-05-07 19:58:00
4:22 PM,66.2,53.6,64,29.90,10.0,WSW,8.1,-,N/A,Rain,Light Rain Showers,240,2013-05-07 20:22:00
4:58 PM,66.2,55.4,68,29.91,10.0,West,4.6,-,0.00,,Mostly Cloudy,260,2013-05-07 20:58:00
5:58 PM,68.4,52.7,57,29.92,10.0,South,5.8,-,N/A,,Mostly Cloudy,190,2013-05-07 21:58:00
6:58 PM,66.4,52.2,60,29.92,10.0,South,3.5,-,N/A,,Clear,180,2013-05-07 22:58:00
7:58 PM,61.3,54.3,78,29.94,10.0,ESE,2.3,-,N/A,,Mostly Cloudy,120,2013-05-07 23:58:00
8:29 PM,60.8,55.4,82,29.94,10.0,North,5.8,-,N/A,Rain,Light Rain Showers,350,2013-05-08 00:29:00
8:48 PM,60.8,55.4,82,29.95,10.0,North,4.6,-,N/A,,Mostly Cloudy,350,2013-05-08 00:48:00
8:58 PM,59.9,54.5,82,29.96,10.0,NNE,1.2,-,0.00,,Mostly Cloudy,20,2013-05-08 00:58:00
9:58 PM,56.5,55.6,97,29.97,10.0,NNW,1.2,-,N/A,,Mostly Cloudy,340,2013-05-08 01:58:00
10:58 PM,55.8,55.4,99,29.98,10.0,Calm,Calm,-,N/A,,Partly Cloudy,0,2013-05-08 02:58:00